TimeMST,TemperatureF,Dew PointF,Humidity,Sea Level PressureIn,VisibilityMPH,Wind Direction,Wind SpeedMPH,Gust SpeedMPH,PrecipitationIn,Events,Conditions,WindDirDegrees,DateUTC
12:57 AM,52.0,17.1,25,29.73,10.0,WSW,10.4,-,N/A,,Clear,250,2013-04-23 07:57:00
1:57 AM,48.9,17.1,28,29.72,10.0,SW,10.4,-,N/A,,Clear,230,2013-04-23 08:57:00
2:57 AM,50.0,18.0,28,29.71,10.0,WSW,8.1,-,N/A,,Clear,240,2013-04-23 09:57:00
3:57 AM,46.0,19.0,34,29.74,10.0,West,4.6,-,N/A,,Clear,270,2013-04-23 10:57:00
4:57 AM,44.1,19.9,38,29.78,10.0,Variable,3.5,-,N/A,,Clear,0,2013-04-23 11:57:00
5:57 AM,35.1,19.0,52,29.84,10.0,WSW,3.5,-,N/A,,Clear,240,2013-04-23 12:57:00
6:57 AM,44.1,21.9,42,29.84,10.0,ESE,4.6,-,N/A,,Clear,110,2013-04-23 13:57:00
7:57 AM,46.9,21.0,36,29.86,10.0,East,6.9,-,N/A,,Scattered Clouds,80,2013-04-23 14:57:00
8:57 AM,50.0,21.0,32,29.87,10.0,NE,5.8,-,N/A,,Mostly Cloudy,50,2013-04-23 15:57:00
9:57 AM,55.0,15.1,21,29.86,10.0,North,8.1,-,N/A,,Mostly Cloudy,10,2013-04-23 16:57:00
10:57 AM,57.0,7.0,14,29.86,10.0,Variable,5.8,16.1,N/A,,Mostly Cloudy,0,2013-04-23 17:57:00
11:57 AM,60.1,6.1,12,29.84,10.0,West,8.1,20.7,N/A,,Partly Cloudy,270,2013-04-23 18:57:00
12:57 PM,62.1,-0.9,8,29.83,10.0,WNW,10.4,19.6,N/A,,Clear,300,2013-04-23 19:57:00
1:57 PM,61.0,-6.0,7,29.86,10.0,Variable,5.8,18.4,N/A,,Clear,0,2013-04-23 20:57:00
2:57 PM,62.1,-16.1,4,29.82,10.0,Variable,6.9,-,N/A,,Clear,0,2013-04-23 21:57:00
3:57 PM,64.0,-11.0,5,29.82,10.0,Variable,5.8,-,N/A,,Clear,0,2013-04-23 22:57:00
4:57 PM,59.0,5.0,12,29.85,10.0,ENE,13.8,-,N/A,,Clear,70,2013-04-23 23:57:00
5:57 PM,55.9,1.9,11,29.91,10.0,East,11.5,-,N/A,,Clear,90,2013-04-24 00:57:00
6:57 PM,51.1,-0.9,12,29.91,10.0,ENE,8.1,-,N/A,,Clear,70,2013-04-24 01:57:00
7:57 PM,41.0,3.0,21,29.97,10.0,Calm,Calm,-,N/A,,Clear,0,2013-04-24 02:57:00
8:57 PM,37.0,1.9,23,29.98,10.0,Calm,Calm,-,N/A,,Clear,0,2013-04-24 03:57:00
9:57 PM,30.9,1.0,28,30.00,10.0,Calm,Calm,-,N/A,,Clear,0,2013-04-24 04:57:00
10:57 PM,28.0,1.9,33,29.99,10.0,Calm,Calm,-,N/A,,Clear,0,2013-04-24 05:57:00
11:57 PM,26.1,1.9,35,29.98,10.0,Calm,Calm,-,N/A,,Clear,0,2013-04-24 06:57:00